Tracking 20719 objects as of 26-May-2020
HD Live streaming from Space Station
objects crossing your sky now

COSMOS 1703

Track COSMOS 1703 now!
10-day predictions
COSMOS 1703 is classified as:


NORAD ID: 16262
Int'l Code: 1985-108A
Perigee: 531.7 km
Apogee: 547.2 km
Inclination: 82.5 °
Period: 95.3 minutes
Semi major axis: 6910 km
RCS: 6.9173 m2 (large)
Launch date: November 22, 1985
Source: Commonwealth of Independent States (former USSR) (CIS)
Launch site: PLESETSK MISSILE AND SPACE COMPLEX (PKMTR)
aabbcc
Your satellite tracking list
Your tracking list is empty




NASA's NSSDC Master Catalog

Two Line Element Set (TLE):
1 16262U 85108A   20143.47807594 -.00000094 +00000-0 -74045-5 0  9993
2 16262 082.4771 277.9253 0011174 186.5314 173.5773 15.11275479880501
Source of the keplerian elements: AFSPC